[[{"header":{"parameterUnit":"m.s-1","parameterCategory":1,"la1":30.2991,"la2":30.254,"lo1":-89.0895,"lo2":-89.0444,"dy":0.0017,"dx":0.0017,"nx":28,"ny":28,"refTime":"2025-01-04T09:00:00:Z","depth":0,"parameterNumber":2,"parameterNumberName":"U-component_of_WINDS"},"data":[0,0,0,0,0,0,0,0,0,0,0,0,0,0,0,0,0,0,0,0,0,0,0,0,0,0,0,0,0,0,0,0,0,0,0,0,0,0,0,0,0,0,0,0,0,0,0,0,0,0,0,0,0,0,0,0,0,0,4.6475,4.6474,0,4.6396,4.6395,4.6394,4.6297,4.6295,4.6294,4.6292,4.6212,4.6212,4.6211,0,0,0,0,0,0,0,0,0,0,0,0,0,4.654,4.654,4.6475,4.6474,4.6473,4.6396,4.6395,4.6394,4.6297,4.6295,4.6293,4.6292,4.6213,4.6212,4.6211,0,0,0,0,0,0,0,0,0,0,0,0,0,4.6492,4.6539,4.6475,4.6415,4.6409,4.6397,4.6395,4.6394,4.6297,4.6295,4.6293,4.6291,4.6213,4.6212,4.6211,4.6251,0,0,4.6208,4.6207,0,0,0,0,0,0,0,0,4.6495,4.649,4.6425,4.6419,4.6412,4.6354,4.6389,4.6346,4.6298,4.634,4.6292,4.6289,4.6261,4.6256,4.6247,4.6247,4.6244,4.6208,4.6207,4.6207,4.6206,0,0,0,0,0,0,0,4.6498,4.6492,4.6444,4.6424,4.6416,4.6392,4.6383,4.638,4.6315,4.6336,4.6329,4.6321,4.6258,4.6248,4.6244,4.6243,4.6208,4.6207,4.6206,4.6206,4.627,4.6272,0,0,0,0,0,0,4.6511,4.6496,4.6446,4.6441,4.6449,4.6393,4.6382,4.6375,4.6314,4.6303,4.6323,4.6316,4.6251,4.6245,4.6241,4.6282,4.6207,4.6206,4.6205,4.6268,4.627,4.6273,0,0,0,0,0,0,4.6512,4.6507,4.6449,4.6467,4.6457,4.6394,4.6387,4.6375,4.6365,4.6304,4.6292,4.6325,4.6249,4.6242,4.6249,4.6278,4.6205,4.6204,4.6265,4.6269,4.6272,4.6366,0,0,0,0,0,0,4.6515,4.6508,4.6523,4.6468,4.6457,4.6459,4.6389,4.6375,4.6363,4.6354,4.6303,4.6293,4.6246,4.6251,4.6248,4.6275,4.6204,4.6262,4.6267,4.6271,4.636,4.6372,4.6383,0,0,0,0,0,4.6517,4.6553,4.6524,4.6519,4.6474,4.6461,4.6455,4.6401,4.6366,4.638,4.6341,4.6294,4.6276,4.6252,4.6248,4.6276,4.626,4.6265,4.627,4.6355,4.637,4.6382,0,0,0,0,0,0,4.6615,4.6545,4.6512,4.6531,4.6503,4.6444,4.646,4.6419,4.6399,4.6392,4.6326,4.6315,4.6329,4.6303,4.6278,4.631,4.6261,4.6265,4.6326,4.634,4.6351,4.6357,4.6203,0,0,0,0,0,4.6638,4.6633,4.6573,4.6596,4.6583,4.6525,4.6517,4.6478,4.6445,4.6433,4.6394,4.6365,4.6351,4.6345,4.633,4.6356,4.6342,4.6373,4.6384,4.6394,4.6398,4.6408,4.642,4.629,4.629,4.629,0,0,4.6687,4.6649,4.665,4.6614,4.6587,4.6583,4.6515,4.6514,4.651,4.6433,4.6435,4.6406,4.6369,4.6385,4.639,4.6364,4.6431,4.64,4.6409,4.6408,4.6415,4.6427,4.6438,4.6294,4.6293,4.6292,0,0,4.6774,4.6745,4.6759,4.6734,4.6693,4.6654,4.6658,4.6606,4.6583,4.6585,4.6526,4.652,4.65,4.6475,4.646,4.6536,4.6491,4.6533,4.6592,4.6602,4.6613,4.6621,4.6646,4.6656,4.6538,4.6538,4.6538,0,4.6839,4.6831,4.6772,4.6774,4.676,4.6689,4.6703,4.6681,4.6639,4.663,4.6601,4.6573,4.6543,4.6551,4.6569,4.656,4.6561,4.6538,4.6616,4.6624,4.6631,4.6654,4.6664,4.6543,4.6543,4.6542,4.6542,0,4.6912,4.6908,4.6924,4.6884,4.6871,4.688,4.6822,4.6816,4.6778,4.6742,4.6744,4.6705,4.668,4.668,4.6643,4.6682,4.6667,4.6628,4.6577,4.665,4.667,4.6679,4.6551,4.6549,4.6547,4.6546,0,0,4.7058,4.6984,4.6991,4.6971,4.6921,4.6916,4.6921,4.6896,4.6891,4.6864,4.6865,4.6849,4.6813,4.6795,4.6755,4.6765,4.6824,4.6724,4.6722,4.6742,4.6863,4.6891,4.6902,4.6795,4.6797,4.6798,4.6865,0,4.7133,4.7137,4.7084,4.7101,4.7095,4.7027,4.7031,4.7,4.6967,4.6956,4.6918,4.6907,4.6861,4.6849,4.6856,4.6816,4.6847,4.6811,4.6794,4.6794,4.6804,4.6913,4.6943,4.7009,4.6873,4.6875,4.6876,0,4.7222,4.7199,4.7216,4.7163,4.7159,4.7163,4.7135,4.7126,4.709,4.7064,4.7045,4.6998,4.6998,4.6951,4.6948,4.6924,4.6915,4.6894,4.6895,4.689,4.6838,4.691,4.7029,4.7038,4.6888,4.6887,4.6886,0,4.7324,4.7297,4.7303,4.7288,4.7228,4.7232,4.7208,4.7169,4.7157,4.7132,4.7123,4.71,4.7087,4.7069,4.7017,4.6988,4.702,4.6969,4.6998,4.6999,4.7007,4.7007,4.7124,4.7004,4.7004,4.7004,4.7003,0,4.7413,4.7425,4.7348,4.7351,4.7363,4.7302,4.7315,4.7283,4.7249,4.7245,4.7186,4.7183,4.7115,4.7104,4.7064,4.7067,4.7062,4.7041,4.7029,4.7045,4.7047,4.7036,4.703,4.7006,4.7006,4.7005,4.7005,0,4.7528,4.7477,4.7478,4.7421,4.7407,4.7418,4.7368,4.7368,4.7331,4.7326,4.7321,4.7262,4.7246,4.7192,4.7164,4.7136,4.7151,4.7131,4.7164,4.7156,4.7187,4.7184,4.73,4.7311,4.7187,4.7188,4.7189,0,4.7587,4.7595,4.7538,4.7531,4.7508,4.7498,4.7484,4.7425,4.7413,4.7372,4.7377,4.7356,4.7336,4.7314,4.7268,4.7245,4.7223,4.7265,4.7219,4.7234,4.7221,4.722,4.722,4.7275,4.7276,4.7278,4.7279,0,4.7697,4.7671,4.7654,4.7629,4.7615,4.7592,4.7565,4.7563,4.7496,4.7486,4.7469,4.7454,4.7423,4.7403,4.7373,4.7346,4.7301,4.7294,4.7299,4.7314,4.7331,4.732,4.7189,4.7291,4.729,4.7289,4.7288,4.7288,4.7784,4.7787,4.7747,4.773,4.7704,4.7681,4.7677,4.7639,4.7624,4.7594,4.756,4.7546,4.7508,4.7463,4.744,4.7427,4.7403,4.7411,4.7413,4.7415,4.7422,4.7335,4.7422,4.7422,4.7421,4.7421,4.742,0,4.7889,4.786,4.7845,4.781,4.7796,4.7755,4.7723,4.7714,4.7703,4.7672,4.7653,4.7632,4.7612,4.7564,4.7539,4.7538,4.7517,4.7534,4.7532,4.7526,4.7446,4.7443,4.7551,4.7551,4.7551,4.7551,4.7551,4.7551,4.7942,4.7944,4.7913,4.7902,4.7872,4.7858,4.7843,4.7821,4.7795,4.7774,4.7757,4.7726,4.7687,4.7658,4.7638,4.7624,4.7616,4.764,4.7619,4.7545,4.7532,4.752,4.7517,4.7639,4.7639,4.77,4.7701,4.7701]},{"header":{"parameterUnit":"m.s-1","parameterCategory":1,"la1":30.2991,"la2":30.254,"lo1":-89.0895,"lo2":-89.0444,"dy":0.0017,"dx":0.0017,"nx":28,"ny":28,"refTime":"2025-01-04T09:00:00:Z","depth":0,"parameterNumber":3,"parameterNumberName":"V-component_of_WINDS"},"data":[0,0,0,0,0,0,0,0,0,0,0,0,0,0,0,0,0,0,0,0,0,0,0,0,0,0,0,0,0,0,0,0,0,0,0,0,0,0,0,0,0,0,0,0,0,0,0,0,0,0,0,0,0,0,0,0,0,0,6.3592,6.3595,0,6.393,6.3933,6.3937,6.3994,6.3992,6.3989,6.3986,6.4327,6.4339,6.435,0,0,0,0,0,0,0,0,0,0,0,0,0,6.2989,6.3,6.3591,6.3596,6.36,6.3929,6.3934,6.3938,6.3995,6.3991,6.3988,6.3985,6.4323,6.4337,6.4351,0,0,0,0,0,0,0,0,0,0,0,0,0,6.3281,6.3004,6.3591,6.3668,6.3678,6.3928,6.3934,6.3939,6.3996,6.3991,6.3987,6.3983,6.4319,6.4336,6.4353,6.4548,0,0,6.4407,6.4415,0,0,0,0,0,0,0,0,6.3264,6.3303,6.3652,6.3663,6.3675,6.3916,6.3846,6.4143,6.3997,6.3875,6.3986,6.3981,6.4193,6.4221,6.4294,6.4564,6.4579,6.4409,6.4419,6.4427,6.4432,0,0,0,0,0,0,0,6.3244,6.3289,6.3725,6.3657,6.3671,6.3684,6.372,6.3903,6.4054,6.3885,6.389,6.393,6.4199,6.4276,6.4302,6.4584,6.4408,6.4424,6.4435,6.4442,6.503,6.5035,0,0,0,0,0,0,6.3211,6.3272,6.3714,6.3735,6.3455,6.3698,6.3739,6.3843,6.4052,6.408,6.3933,6.3931,6.4248,6.4281,6.4314,6.4557,6.4427,6.4443,6.4453,6.5025,6.5031,6.5037,0,0,0,0,0,0,6.3198,6.325,6.3701,6.3505,6.3563,6.3713,6.3829,6.3852,6.393,6.4088,6.4115,6.3985,6.4246,6.4289,6.449,6.457,6.4451,6.4467,6.5019,6.5027,6.5034,6.5043,0,0,0,0,0,0,6.318,6.3245,6.3322,6.3506,6.3574,6.3872,6.3834,6.3861,6.396,6.3961,6.4145,6.4171,6.4246,6.4463,6.4507,6.4592,6.4481,6.5013,6.5023,6.5032,6.5036,6.505,6.5062,0,0,0,0,0,6.3159,6.331,6.3326,6.3379,6.3674,6.3877,6.3915,6.4001,6.3967,6.4045,6.4146,6.4165,6.4553,6.4483,6.4533,6.4624,6.5008,6.502,6.5031,6.5031,6.5047,6.5061,0,0,0,0,0,0,6.3129,6.3336,6.3355,6.3571,6.3706,6.3886,6.3987,6.4015,6.4162,6.4156,6.4254,6.4295,6.449,6.4577,6.4495,6.4823,6.4778,6.48,6.476,6.4778,6.479,6.4766,6.4496,0,0,0,0,0,6.3148,6.3298,6.3469,6.3643,6.371,6.3837,6.3928,6.3983,6.4126,6.4183,6.4299,6.4436,6.4589,6.4688,6.4837,6.5048,6.5089,6.5135,6.5148,6.5157,6.5176,6.5294,6.5317,6.5074,6.5074,6.5074,0,0,6.3189,6.332,6.3408,6.3641,6.3752,6.3903,6.3885,6.4045,6.4158,6.4207,6.4404,6.4494,6.4652,6.4859,6.4956,6.4937,6.5251,6.5172,6.5178,6.5192,6.5308,6.5331,6.5351,6.5082,6.5081,6.5079,0,0,6.334,6.3454,6.3612,6.3724,6.3893,6.3976,6.4013,6.4189,6.4251,6.4451,6.449,6.4624,6.4886,6.4998,6.5089,6.528,6.5303,6.5326,6.5393,6.5507,6.5526,6.5544,6.5613,6.5637,6.5343,6.5343,6.5343,0,6.3368,6.3601,6.3689,6.385,6.395,6.4001,6.4161,6.4264,6.4472,6.454,6.4516,6.4845,6.4956,6.5189,6.5236,6.5308,6.5353,6.5307,6.5517,6.5535,6.5553,6.562,6.5646,6.5345,6.5345,6.5345,6.5344,0,6.3627,6.3787,6.3894,6.4096,6.4208,6.4367,6.4478,6.458,6.4623,6.4708,6.491,6.5044,6.5222,6.528,6.5324,6.5521,6.5504,6.5497,6.5454,6.5576,6.5641,6.5668,6.5348,6.5347,6.5346,6.5346,0,0,6.3772,6.402,6.4058,6.4151,6.434,6.4464,6.4624,6.4799,6.4886,6.5026,6.5163,6.5382,6.5377,6.548,6.5536,6.5635,6.578,6.5617,6.5622,6.5644,6.6006,6.6011,6.604,6.5795,6.58,6.5804,6.5993,0,6.3947,6.4238,6.4321,6.4565,6.4713,6.4763,6.4902,6.5032,6.5115,6.5251,6.5342,6.5497,6.5477,6.554,6.5641,6.5741,6.5854,6.5728,6.5923,6.5929,6.5884,6.6074,6.6081,6.6252,6.6019,6.6023,6.6026,0,6.4191,6.4339,6.4598,6.4768,6.4833,6.4957,6.5125,6.5254,6.5402,6.5455,6.557,6.5617,6.5784,6.5729,6.5961,6.5873,6.5957,6.6018,6.6026,6.605,6.5987,6.6104,6.6309,6.6335,6.6067,6.6064,6.6061,0,6.4272,6.4535,6.4724,6.4801,6.5004,6.509,6.5178,6.5322,6.5422,6.5567,6.5632,6.5794,6.5883,6.6006,6.6094,6.6046,6.6319,6.6271,6.6367,6.6365,6.6425,6.642,6.6648,6.6475,6.6474,6.6474,6.6473,0,6.446,6.4617,6.4764,6.4881,6.5057,6.515,6.5321,6.5411,6.5538,6.5672,6.5723,6.5847,6.5956,6.6094,6.6164,6.6345,6.6384,6.6432,6.6449,6.6429,6.6423,6.6487,6.6478,6.6481,6.6479,6.6478,6.6477,0,6.4582,6.4687,6.4897,6.5072,6.5119,6.5241,6.539,6.5505,6.5588,6.5757,6.5801,6.5933,6.6098,6.6198,6.6406,6.6453,6.6654,6.6665,6.6605,6.6614,6.6705,6.6696,6.6984,6.7027,6.6822,6.6824,6.6826,0,6.4696,6.4819,6.5007,6.5101,6.5191,6.5341,6.5444,6.5539,6.5643,6.582,6.5913,6.6081,6.6222,6.6482,6.6596,6.6755,6.6772,6.6862,6.6796,6.6773,6.6776,6.6769,6.6782,6.6873,6.6875,6.6877,6.6878,0,6.4888,6.4934,6.5081,6.5246,6.5368,6.5502,6.5635,6.5709,6.5826,6.594,6.611,6.6219,6.6433,6.6599,6.6769,6.6857,6.6888,6.6897,6.6928,6.691,6.6871,6.6896,6.6638,6.6891,6.689,6.6889,6.6888,6.6887,6.5011,6.5123,6.5273,6.5435,6.5545,6.5669,6.5785,6.5884,6.6028,6.6211,6.6257,6.6435,6.6579,6.681,6.6902,6.7042,6.7028,6.7073,6.7085,6.7095,6.7098,6.6847,6.7073,6.7073,6.7072,6.7072,6.7072,0,6.5207,6.5306,6.5454,6.5641,6.5767,6.5785,6.5933,6.6038,6.6195,6.6327,6.6465,6.666,6.6822,6.6947,6.7113,6.7201,6.7219,6.7241,6.7237,6.7257,6.71,6.7058,6.7224,6.7224,6.7224,6.7224,6.7224,6.7224,6.5325,6.5514,6.5577,6.5821,6.5919,6.6096,6.6179,6.6293,6.6399,6.6616,6.6751,6.6832,6.6962,6.7137,6.7286,6.7318,6.7378,6.7398,6.7433,6.7285,6.7268,6.7252,6.7213,6.741,6.741,6.7579,6.7581,6.7582]}]]